• In Lithuania
  • List of Countries
  • For 7 days
  • Water Temperature
  • Satellite Maps
  • Weather Map
  • Weather Widgets
  • user-avatar
    Login

    Hourly Weather Sarajevo

    Today, 22 October, Monday

    Time Temperature Precipitation Wind Pressure Humidity
    00:00 +3°C° 0 mm 2 mps 690 mmHg 86%
    01:00 +3°C° 0 mm 2 mps 690 mmHg 87%
    02:00 +3°C° 0 mm 2 mps 690 mmHg 88%
    03:00 +3°C° 0 mm 2 mps 689 mmHg 88%
    04:00 +2°C° 0 mm 2 mps 689 mmHg 89%
    05:00 +2°C° 0 mm 2 mps 689 mmHg 88%
    06:00 +3°C° 0 mm 2 mps 689 mmHg 87%
    07:00 +3°C° 0 mm 2 mps 690 mmHg 86%
    08:00 +5°C° 0 mm 2 mps 690 mmHg 79%
    09:00 +7°C° 0 mm 2 mps 690 mmHg 71%
    10:00 +9°C° 0 mm 3 mps 690 mmHg 64%
    11:00 +10°C° 0 mm 3 mps 690 mmHg 62%
    12:00 +11°C° 0 mm 3 mps 690 mmHg 60%
    13:00 +12°C° 0 mm 3 mps 690 mmHg 58%
    14:00 +11°C° 0 mm 3 mps 690 mmHg 63%
    15:00 +10°C° 0 mm 3 mps 689 mmHg 67%
    16:00 +9°C° 0 mm 3 mps 689 mmHg 71%
    17:00 +8°C° 0 mm 3 mps 689 mmHg 75%
    18:00 +8°C° 0 mm 3 mps 690 mmHg 80%
    19:00 +7°C° 0 mm 2 mps 690 mmHg 84%
    20:00 +6°C° 0 mm 2 mps 690 mmHg 86%
    21:00 +6°C° 0 mm 2 mps 690 mmHg 87%
    22:00 +6°C° 0 mm 2 mps 690 mmHg 88%
    23:00 +6°C° 0 mm 2 mps 690 mmHg 89%

    Tomorrow, 23 October, Tuesday

    Time Temperature Precipitation Wind Pressure Humidity
    00:00 +6°C° 0 mm 2 mps 690 mmHg 89%
    01:00 +6°C° 0 mm 2 mps 690 mmHg 90%
    02:00 +6°C° 0 mm 2 mps 690 mmHg 90%
    03:00 +6°C° 0 mm 2 mps 690 mmHg 89%
    04:00 +7°C° 0 mm 2 mps 690 mmHg 89%
    05:00 +7°C° 0 mm 2 mps 690 mmHg 89%
    06:00 +7°C° 0 mm 3 mps 690 mmHg 89%
    07:00 +7°C° 0 mm 3 mps 690 mmHg 89%
    08:00 +8°C° 0 mm 3 mps 691 mmHg 84%
    09:00 +9°C° 0 mm 3 mps 691 mmHg 78%
    10:00 +10°C° 0 mm 3 mps 692 mmHg 73%
    11:00 +11°C° 0 mm 3 mps 691 mmHg 70%
    12:00 +12°C° 0 mm 3 mps 691 mmHg 68%
    13:00 +12°C° 0 mm 3 mps 691 mmHg 65%
    14:00 +12°C° 0 mm 3 mps 691 mmHg 67%
    15:00 +11°C° 0 mm 3 mps 690 mmHg 70%
    16:00 +10°C° 0 mm 2 mps 690 mmHg 72%
    17:00 +9°C° 0 mm 2 mps 690 mmHg 78%
    18:00 +7°C° 0 mm 2 mps 690 mmHg 83%
    19:00 +6°C° 0 mm 2 mps 689 mmHg 89%
    20:00 +7°C° 0 mm 1 mps 689 mmHg 89%
    21:00 +6°C° 0 mm 1 mps 689 mmHg 90%
    22:00 +6°C° 0 mm 1 mps 689 mmHg 90%
    23:00 +6°C° 0 mm 1 mps 689 mmHg 88%

    Day after tomorrow, 24 October, Wednesday

    Time Temperature Precipitation Wind Pressure Humidity
    00:00 +6°C° 0 mm 1 mps 688 mmHg 86%
    01:00 +6°C° 0 mm 1 mps 688 mmHg 84%
    02:00 +6°C° 0 mm 1 mps 687 mmHg 78%
    03:00 +6°C° 0 mm 1 mps 687 mmHg 72%
    04:00 +7°C° 0 mm 1 mps 687 mmHg 66%
    05:00 +7°C° 0 mm 1 mps 686 mmHg 62%
    06:00 +8°C° 0 mm 1 mps 686 mmHg 59%
    07:00 +8°C° 0 mm 1 mps 686 mmHg 56%
    08:00 +9°C° 0 mm 2 mps 687 mmHg 52%
    09:00 +13°C° 0 mm 2 mps 687 mmHg 48%
    10:00 +15°C° 0 mm 2 mps 687 mmHg 43%
    11:00 +16°C° 0 mm 2 mps 687 mmHg 43%
    12:00 +16°C° 0 mm 3 mps 687 mmHg 43%
    13:00 +17°C° 0 mm 3 mps 686 mmHg 43%
    14:00 +16°C° 0 mm 3 mps 686 mmHg 48%
    15:00 +14°C° 0 mm 3 mps 686 mmHg 53%
    16:00 +14°C° 0 mm 2 mps 686 mmHg 58%
    17:00 +13°C° 0.3 mm 2 mps 687 mmHg 65%
    18:00 +10°C° 0.3 mm 3 mps 687 mmHg 72%
    19:00 +9°C° 0.3 mm 3 mps 687 mmHg 80%
    20:00 +8°C° 0.1 mm 3 mps 688 mmHg 80%
    21:00 +7°C° 0.1 mm 3 mps 688 mmHg 80%
    22:00 +5°C° 0.1 mm 3 mps 689 mmHg 81%
    23:00 +4°C° 0 mm 3 mps 689 mmHg 81%

    25 October, Thursday

    Time Temperature Precipitation Wind Pressure Humidity
    00:00 +3°C° 0 mm 3 mps 689 mmHg 81%
    01:00 +2°C° 0 mm 3 mps 689 mmHg 81%
    02:00 +1°C° 0 mm 3 mps 689 mmHg 80%
    03:00 +2°C° 0 mm 2 mps 689 mmHg 79%
    04:00 +1°C° 0 mm 2 mps 689 mmHg 77%
    05:00 +1°C° 0 mm 2 mps 690 mmHg 76%
    06:00 +2°C° 0 mm 2 mps 690 mmHg 74%
    07:00 +2°C° 0 mm 2 mps 690 mmHg 72%
    08:00 +3°C° 0 mm 3 mps 691 mmHg 66%
    09:00 +5°C° 0 mm 3 mps 691 mmHg 59%
    10:00 +8°C° 0 mm 3 mps 692 mmHg 53%
    11:00 +9°C° 0 mm 3 mps 692 mmHg 52%
    12:00 +10°C° 0 mm 3 mps 692 mmHg 52%
    13:00 +11°C° 0 mm 3 mps 691 mmHg 51%
    14:00 +12°C° 0 mm 2 mps 691 mmHg 55%
    15:00 +12°C° 0 mm 2 mps 691 mmHg 58%
    16:00 +11°C° 0 mm 1 mps 691 mmHg 62%
    17:00 +10°C° 0 mm 1 mps 690 mmHg 68%
    18:00 +8°C° 0 mm 1 mps 690 mmHg 74%
    19:00 +6°C° 0 mm 1 mps 690 mmHg 79%
    20:00 +6°C° 0 mm 1 mps 690 mmHg 80%
    21:00 +6°C° 0 mm 1 mps 690 mmHg 80%
    22:00 +6°C° 0 mm 1 mps 690 mmHg 81%
    23:00 +6°C° 0 mm 1 mps 690 mmHg 80%

    26 October, Friday

    Time Temperature Precipitation Wind Pressure Humidity
    00:00 +6°C° 0 mm 1 mps 690 mmHg 79%
    01:00 +6°C° 0 mm 1 mps 689 mmHg 78%
    02:00 +6°C° 0 mm 1 mps 689 mmHg 77%
    03:00 +6°C° 0 mm 1 mps 689 mmHg 76%
    04:00 +6°C° 0 mm 1 mps 689 mmHg 74%
    05:00 +6°C° 0 mm 1 mps 689 mmHg 73%
    06:00 +6°C° 0 mm 1 mps 689 mmHg 72%
    07:00 +7°C° 0 mm 1 mps 689 mmHg 71%
    08:00 +8°C° 0 mm 2 mps 689 mmHg 65%
    09:00 +12°C° 0 mm 2 mps 689 mmHg 59%
    10:00 +15°C° 0 mm 2 mps 690 mmHg 54%
    11:00 +14°C° 0 mm 3 mps 690 mmHg 54%
    12:00 +16°C° 0 mm 3 mps 689 mmHg 54%
    13:00 +17°C° 0 mm 4 mps 689 mmHg 54%
    14:00 +16°C° 0 mm 3 mps 689 mmHg 59%
    15:00 +14°C° 0 mm 3 mps 689 mmHg 64%
    16:00 +12°C° 0 mm 3 mps 688 mmHg 69%
    17:00 +11°C° 0 mm 3 mps 688 mmHg 75%
    18:00 +9°C° 0 mm 3 mps 688 mmHg 81%
    19:00 +8°C° 0 mm 3 mps 688 mmHg 87%
    20:00 +8°C° 0 mm 3 mps 688 mmHg 84%
    21:00 +9°C° 0 mm 3 mps 688 mmHg 81%
    22:00 +9°C° 0 mm 3 mps 688 mmHg 78%
    23:00 +9°C° 0.1 mm 3 mps 688 mmHg 80%

    27 October, Saturday

    Time Temperature Precipitation Wind Pressure Humidity
    00:00 +9°C° 0.1 mm 3 mps 688 mmHg 82%
    01:00 +8°C° 0.1 mm 4 mps 687 mmHg 85%
    02:00 +8°C° 0.1 mm 4 mps 687 mmHg 86%
    03:00 +10°C° 0.1 mm 4 mps 687 mmHg 88%
    04:00 +10°C° 0.1 mm 4 mps 686 mmHg 89%
    05:00 +10°C° 0.1 mm 4 mps 686 mmHg 89%
    06:00 +10°C° 0.1 mm 5 mps 686 mmHg 88%
    07:00 +10°C° 0.1 mm 5 mps 686 mmHg 88%
    08:00 +12°C° 0.2 mm 5 mps 686 mmHg 85%
    09:00 +13°C° 0.2 mm 6 mps 686 mmHg 82%
    10:00 +12°C° 0.2 mm 7 mps 686 mmHg 79%
    11:00 +14°C° 0.2 mm 7 mps 685 mmHg 80%
    12:00 +14°C° 0.2 mm 7 mps 685 mmHg 80%
    13:00 +14°C° 0.2 mm 7 mps 685 mmHg 81%
    14:00 +14°C° 0.2 mm 7 mps 684 mmHg 83%
    15:00 +14°C° 0.2 mm 7 mps 684 mmHg 85%
    16:00 +13°C° 0.2 mm 8 mps 684 mmHg 87%
    17:00 +13°C° 0.2 mm 8 mps 683 mmHg 87%
    18:00 +12°C° 0.2 mm 8 mps 683 mmHg 88%
    19:00 +12°C° 0.2 mm 9 mps 683 mmHg 89%
    20:00 +12°C° 0.3 mm 9 mps 683 mmHg 88%
    21:00 +12°C° 0.3 mm 9 mps 683 mmHg 86%
    22:00 +12°C° 0.3 mm 9 mps 683 mmHg 85%
    23:00 +12°C° 0.7 mm 9 mps 683 mmHg 86%

    28 October, Sunday

    Time Temperature Precipitation Wind Pressure Humidity
    00:00 +12°C° 0.7 mm 9 mps 683 mmHg 86%
    01:00 +12°C° 0.7 mm 9 mps 683 mmHg 86%
    02:00 +12°C° 3 mm 9 mps 683 mmHg 86%
    03:00 +12°C° 3 mm 9 mps 682 mmHg 86%
    04:00 +12°C° 3 mm 9 mps 682 mmHg 87%
    05:00 +12°C° 4.6 mm 9 mps 682 mmHg 87%
    06:00 +12°C° 4.6 mm 9 mps 682 mmHg 88%
    07:00 +12°C° 4.6 mm 9 mps 683 mmHg 88%
    08:00 +13°C° 4.9 mm 9 mps 683 mmHg 88%
    09:00 +13°C° 4.9 mm 9 mps 683 mmHg 87%
    10:00 +13°C° 4.9 mm 10 mps 683 mmHg 87%
    11:00 +13°C° 6.3 mm 10 mps 683 mmHg 88%
    12:00 +13°C° 6.3 mm 9 mps 683 mmHg 89%
    13:00 +13°C° 6.3 mm 9 mps 683 mmHg 90%
    14:00 +13°C° 5.7 mm 9 mps 683 mmHg 91%
    15:00 +13°C° 5.7 mm 8 mps 683 mmHg 91%
    16:00 +14°C° 5.7 mm 7 mps 683 mmHg 92%
    17:00 +14°C° 4.7 mm 7 mps 683 mmHg 93%
    18:00 +14°C° 4.7 mm 6 mps 684 mmHg 94%
    19:00 +13°C° 4.7 mm 6 mps 684 mmHg 95%
    20:00 +13°C° 6.7 mm 6 mps 684 mmHg 95%
    21:00 +13°C° 6.7 mm 5 mps 684 mmHg 95%
    22:00 +13°C° 6.7 mm 5 mps 684 mmHg 96%
    23:00 +13°C° 10.3 mm 5 mps 684 mmHg 95%
    Show more